BCS417 LEVT-EBBR

Flight info

Callsign BCS417
Flight time N/A
Altitude 22000
Route CEGAM L176 LUSEM/N0426F340 DCT LULUT DCT ADABI DCT BOKNO UN858 VANAD UN874 BAMES UT191 PODEM UN873 BAZOS DCT BELDI DCT VEKIN Z173 ARVOL
Aircraft B738/M-SDE2E3FGHIRWXY/LB1

Departure

Time N/A
Airport Vitoria Airport (LEVT)

Arrival

Time 2026-05-03 21:29
Airport Brussels Airport (EBBR)
Time Latitude Longitude Altitude Speed Heading
2026-05-03 20:15 44.17606 -1.04831 32094 ft 479 kts 33°
2026-05-03 20:15 44.20371 -1.02258 32524 ft 478 kts 33°
2026-05-03 20:15 44.23138 -0.99681 32916 ft 478 kts 33°
2026-05-03 20:15 44.25900 -0.97105 33307 ft 478 kts 33°
2026-05-03 20:16 44.28666 -0.94522 33697 ft 478 kts 33°
2026-05-03 20:16 44.31426 -0.91942 33971 ft 480 kts 33°
2026-05-03 20:16 44.34218 -0.89329 33940 ft 484 kts 33°
2026-05-03 20:17 44.39801 -0.84150 33932 ft 477 kts 30°
2026-05-03 20:17 44.45755 -0.80178 33957 ft 475 kts 21°
2026-05-03 20:18 44.51878 -0.76581 33961 ft 479 kts 21°
2026-05-03 20:18 44.58014 -0.72933 33952 ft 479 kts 21°
2026-05-03 20:19 44.64132 -0.69212 33958 ft 479 kts 22°
2026-05-03 20:19 44.70234 -0.65461 33960 ft 478 kts 22°
2026-05-03 20:20 44.76273 -0.61736 33963 ft 476 kts 22°
2026-05-03 20:20 44.82329 -0.57996 33964 ft 474 kts 22°
2026-05-03 20:21 44.88365 -0.54261 33967 ft 473 kts 22°
2026-05-03 20:21 44.94389 -0.50526 33965 ft 473 kts 22°
2026-05-03 20:22 45.00408 -0.46785 33972 ft 473 kts 22°
2026-05-03 20:22 45.05417 -0.43666 33960 ft 474 kts 22°
2026-05-03 20:23 45.11461 -0.39894 33960 ft 476 kts 22°
2026-05-03 20:23 45.17526 -0.36100 33959 ft 477 kts 22°
2026-05-03 20:24 45.23611 -0.32285 33963 ft 479 kts 22°
2026-05-03 20:24 45.29722 -0.28444 33962 ft 481 kts 22°
2026-05-03 20:25 45.35842 -0.24588 33958 ft 482 kts 22°
2026-05-03 20:25 45.41965 -0.20721 33968 ft 482 kts 22°
2026-05-03 20:26 45.48097 -0.16839 33949 ft 482 kts 22°
2026-05-03 20:26 45.54208 -0.12961 33967 ft 481 kts 22°
2026-05-03 20:27 45.60315 -0.09077 33964 ft 480 kts 22°
2026-05-03 20:27 45.66417 -0.05186 33964 ft 480 kts 22°
2026-05-03 20:28 45.72515 -0.01289 33962 ft 480 kts 22°
2026-05-03 20:28 45.78607 0.02615 33975 ft 480 kts 22°
2026-05-03 20:29 45.84705 0.06530 33965 ft 480 kts 22°
2026-05-03 20:29 45.90802 0.10455 33964 ft 481 kts 22°
2026-05-03 20:30 45.96905 0.14393 33972 ft 481 kts 22°
2026-05-03 20:30 46.03022 0.18350 33963 ft 482 kts 22°
2026-05-03 20:31 46.09146 0.22321 33960 ft 483 kts 22°
2026-05-03 20:31 46.15278 0.26307 33954 ft 484 kts 22°
2026-05-03 20:32 46.21546 0.29793 33966 ft 482 kts 15°
2026-05-03 20:32 46.27958 0.32644 33960 ft 482 kts 13°
2026-05-03 20:33 46.34389 0.35476 33952 ft 483 kts 14°
2026-05-03 20:33 46.40805 0.38402 33969 ft 484 kts 15°
2026-05-03 20:34 46.47178 0.41367 33951 ft 484 kts 14°
2026-05-03 20:34 46.53573 0.44364 33963 ft 483 kts 14°
2026-05-03 20:35 46.59955 0.47360 33974 ft 482 kts 14°
2026-05-03 20:35 46.66336 0.50359 33963 ft 482 kts 14°
2026-05-03 20:36 46.72713 0.53361 33958 ft 481 kts 14°
2026-05-03 20:36 46.79084 0.56368 33961 ft 481 kts 14°
2026-05-03 20:37 46.85458 0.59385 33946 ft 482 kts 14°
2026-05-03 20:37 46.91832 0.62409 33953 ft 482 kts 14°
2026-05-03 20:38 46.98209 0.65441 33952 ft 482 kts 14°
2026-05-03 20:38 47.04591 0.68484 33956 ft 483 kts 14°
2026-05-03 20:39 47.10984 0.71540 33953 ft 483 kts 14°
2026-05-03 20:39 47.17377 0.74604 33956 ft 483 kts 14°
2026-05-03 20:40 47.23779 0.77680 33964 ft 484 kts 15°
2026-05-03 20:40 47.30182 0.80764 33965 ft 484 kts 15°
2026-05-03 20:41 47.36546 0.83836 33950 ft 484 kts 14°
2026-05-03 20:41 47.42941 0.86932 33962 ft 484 kts 14°
2026-05-03 20:42 47.49328 0.90034 33969 ft 483 kts 14°
2026-05-03 20:42 47.55709 0.93140 33958 ft 482 kts 14°
2026-05-03 20:43 47.62081 0.96249 33954 ft 482 kts 14°
2026-05-03 20:43 47.68451 0.99365 33941 ft 482 kts 14°
2026-05-03 20:44 47.74816 1.02486 33945 ft 482 kts 14°
2026-05-03 20:44 47.81180 1.05614 33955 ft 482 kts 15°
2026-05-03 20:45 47.87549 1.08753 33947 ft 483 kts 15°
2026-05-03 20:45 47.93931 1.11907 33942 ft 483 kts 15°
2026-05-03 20:46 48.00315 1.15071 33935 ft 484 kts 15°
2026-05-03 20:46 48.06706 1.18246 33944 ft 484 kts 15°
2026-05-03 20:47 48.13102 1.21431 33939 ft 485 kts 16°
2026-05-03 20:47 48.19499 1.24626 33942 ft 485 kts 16°
2026-05-03 20:48 48.25898 1.27831 33949 ft 485 kts 16°
2026-05-03 20:48 48.32297 1.31042 33940 ft 484 kts 15°
2026-05-03 20:49 48.38685 1.34259 33941 ft 484 kts 15°
2026-05-03 20:49 48.45066 1.37480 33956 ft 483 kts 15°
2026-05-03 20:50 48.51443 1.40707 33944 ft 483 kts 15°
2026-05-03 20:50 48.57817 1.43941 33940 ft 483 kts 15°
2026-05-03 20:51 48.64191 1.47184 33943 ft 483 kts 15°
2026-05-03 20:51 48.70559 1.50432 33948 ft 483 kts 15°
2026-05-03 20:52 48.76932 1.53692 33939 ft 484 kts 15°
2026-05-03 20:52 48.83305 1.56961 33944 ft 484 kts 15°
2026-05-03 20:53 48.89682 1.60240 33946 ft 484 kts 15°
2026-05-03 20:53 48.96056 1.63527 33949 ft 484 kts 16°
2026-05-03 20:54 49.02433 1.66825 33946 ft 484 kts 15°
2026-05-03 20:54 49.11959 1.71766 33945 ft 485 kts 16°
2026-05-03 20:55 49.18335 1.75085 33937 ft 484 kts 16°
2026-05-03 20:55 49.24706 1.78412 33926 ft 483 kts 15°
2026-05-03 20:56 49.31055 1.81736 33942 ft 482 kts 15°
2026-05-03 20:56 49.37395 1.85063 33940 ft 481 kts 15°
2026-05-03 20:57 49.43719 1.88391 33934 ft 480 kts 15°
2026-05-03 20:57 49.49973 1.92026 33932 ft 483 kts 25°
2026-05-03 20:58 49.55447 1.97991 33946 ft 484 kts 44°
2026-05-03 20:58 49.60255 2.05223 33944 ft 483 kts 45°
2026-05-03 20:59 49.65037 2.12500 33941 ft 483 kts 45°
2026-05-03 20:59 49.69851 2.19722 33942 ft 483 kts 45°
2026-05-03 21:00 49.73050 2.24494 33955 ft 483 kts 45°
2026-05-03 21:00 49.79504 2.34141 33664 ft 484 kts 44°
2026-05-03 21:01 49.81918 2.37760 33268 ft 480 kts 44°
2026-05-03 21:01 49.84306 2.41349 32845 ft 476 kts 45°
2026-05-03 21:01 49.86675 2.44915 32432 ft 473 kts 45°
2026-05-03 21:01 49.89027 2.48461 32030 ft 470 kts 45°
2026-05-03 21:02 49.91361 2.51985 31639 ft 467 kts 45°
2026-05-03 21:02 49.93683 2.55493 31247 ft 465 kts 45°
2026-05-03 21:02 49.95953 2.58927 30857 ft 457 kts 45°
2026-05-03 21:02 49.98212 2.62359 30476 ft 453 kts 46°
2026-05-03 21:03 50.00455 2.65777 30089 ft 451 kts 46°
2026-05-03 21:03 50.02689 2.69191 29668 ft 449 kts 46°
2026-05-03 21:03 50.04912 2.72591 29241 ft 447 kts 46°
2026-05-03 21:03 50.07119 2.75972 28820 ft 443 kts 46°
2026-05-03 21:04 50.09302 2.79320 28448 ft 439 kts 46°
2026-05-03 21:04 50.11467 2.82643 28051 ft 436 kts 46°
2026-05-03 21:04 50.13618 2.85951 27668 ft 433 kts 46°
2026-05-03 21:04 50.15755 2.89241 27279 ft 430 kts 46°
2026-05-03 21:05 50.17875 2.92508 26903 ft 427 kts 46°
2026-05-03 21:05 50.19980 2.95757 26520 ft 424 kts 46°
2026-05-03 21:05 50.22071 2.98988 26140 ft 422 kts 46°
2026-05-03 21:05 50.24148 3.02202 25760 ft 419 kts 46°
2026-05-03 21:06 50.26209 3.05396 25384 ft 416 kts 46°
2026-05-03 21:06 50.28260 3.08577 25010 ft 414 kts 46°
2026-05-03 21:06 50.30295 3.11738 24638 ft 412 kts 45°
2026-05-03 21:06 50.32321 3.14890 24266 ft 409 kts 45°
2026-05-03 21:07 50.34334 3.18026 23896 ft 407 kts 45°
2026-05-03 21:07 50.36335 3.21146 23523 ft 405 kts 45°
2026-05-03 21:07 50.38327 3.24255 23081 ft 403 kts 45°
2026-05-03 21:07 50.40295 3.27330 22673 ft 395 kts 45°
2026-05-03 21:08 50.42214 3.30326 22360 ft 386 kts 45°
2026-05-03 21:08 50.44111 3.33282 21989 ft 383 kts 45°
2026-05-03 21:08 50.45995 3.36222 21624 ft 381 kts 45°
2026-05-03 21:08 50.47235 3.38157 21384 ft 379 kts 45°
2026-05-03 21:09 50.49095 3.41067 21028 ft 376 kts 45°
2026-05-03 21:09 50.50945 3.43962 20673 ft 374 kts 45°
2026-05-03 21:09 50.52780 3.46838 20323 ft 372 kts 45°
2026-05-03 21:09 50.54611 3.49692 19973 ft 370 kts 43°
2026-05-03 21:10 50.56602 3.52230 19626 ft 367 kts 35°
2026-05-03 21:10 50.58700 3.54498 19287 ft 365 kts 33°
2026-05-03 21:10 50.60813 3.56701 18949 ft 363 kts 33°
2026-05-03 21:10 50.62908 3.58907 18600 ft 362 kts 33°
2026-05-03 21:11 50.64986 3.61137 18247 ft 360 kts 34°
2026-05-03 21:11 50.67042 3.63377 17857 ft 359 kts 34°
2026-05-03 21:11 50.69084 3.65623 17482 ft 357 kts 34°
2026-05-03 21:11 50.71109 3.67859 17115 ft 354 kts 34°
2026-05-03 21:12 50.73120 3.70083 16772 ft 352 kts 34°
2026-05-03 21:12 50.75117 3.72294 16427 ft 349 kts 34°
2026-05-03 21:12 50.77099 3.74496 16091 ft 347 kts 34°
2026-05-03 21:12 50.79066 3.76687 15741 ft 345 kts 34°
2026-05-03 21:13 50.81022 3.78866 15417 ft 343 kts 34°
2026-05-03 21:13 50.82966 3.81035 15092 ft 341 kts 34°
2026-05-03 21:13 50.84900 3.83193 14752 ft 340 kts 34°
2026-05-03 21:13 50.86825 3.85354 14416 ft 338 kts 36°
2026-05-03 21:14 50.88437 3.88012 14108 ft 335 kts 58°
2026-05-03 21:14 50.89624 3.91151 13896 ft 330 kts 60°
2026-05-03 21:14 50.90789 3.94258 13654 ft 326 kts 60°
2026-05-03 21:14 50.91906 3.97307 13651 ft 316 kts 67°
2026-05-03 21:15 50.92411 4.00627 13402 ft 312 kts 89°
2026-05-03 21:15 50.92103 4.04073 12860 ft 317 kts 105°
2026-05-03 21:15 50.91624 4.07509 12433 ft 320 kts 105°
2026-05-03 21:15 50.91160 4.10949 12075 ft 319 kts 104°
2026-05-03 21:16 50.90722 4.14394 11712 ft 319 kts 101°
2026-05-03 21:16 50.90580 4.17941 11232 ft 325 kts 92°
2026-05-03 21:16 50.90598 4.21520 10864 ft 325 kts 91°
2026-05-03 21:16 50.90605 4.25092 10514 ft 323 kts 92°
2026-05-03 21:17 50.90581 4.28643 10197 ft 321 kts 93°
2026-05-03 21:17 50.90556 4.30963 10111 ft 315 kts 93°
2026-05-03 21:17 50.90497 4.35544 9896 ft 306 kts 93°
2026-05-03 21:17 50.90452 4.38840 9895 ft 293 kts 94°
2026-05-03 21:18 50.90405 4.42135 9258 ft 304 kts 94°
2026-05-03 21:18 50.90356 4.45491 8850 ft 306 kts 94°
2026-05-03 21:18 50.90307 4.48856 8523 ft 305 kts 94°
2026-05-03 21:18 50.90398 4.52202 8176 ft 307 kts 78°
2026-05-03 21:19 50.91324 4.55228 7818 ft 309 kts 51°
2026-05-03 21:19 50.92868 4.57586 7485 ft 308 kts 40°
2026-05-03 21:19 50.94497 4.59786 7157 ft 307 kts 40°
2026-05-03 21:19 50.96125 4.61975 6827 ft 306 kts 40°
2026-05-03 21:20 50.97742 4.64169 6523 ft 305 kts 40°
2026-05-03 21:20 50.99344 4.66368 6199 ft 304 kts 41°
2026-05-03 21:20 51.00933 4.68560 5911 ft 301 kts 41°
2026-05-03 21:20 51.02492 4.70717 5597 ft 292 kts 41°
2026-05-03 21:21 51.04088 4.72605 5345 ft 280 kts 22°
2026-05-03 21:21 51.05924 4.73211 5273 ft 265 kts 355°
2026-05-03 21:21 51.07636 4.72596 5206 ft 248 kts 334°
2026-05-03 21:21 51.09052 4.71226 5061 ft 231 kts 314°
2026-05-03 21:22 51.10095 4.69400 4957 ft 216 kts 303°
2026-05-03 21:22 51.10675 4.67294 4741 ft 203 kts 280°
2026-05-03 21:22 51.11001 4.65156 4540 ft 195 kts 281°
2026-05-03 21:22 51.11330 4.63105 4313 ft 188 kts 281°
2026-05-03 21:23 51.11606 4.61119 4104 ft 179 kts 269°
2026-05-03 21:23 51.11282 4.59335 3956 ft 164 kts 233°
2026-05-03 21:23 51.10448 4.58179 3774 ft 160 kts 204°
2026-05-03 21:23 51.09377 4.57669 3613 ft 162 kts 197°
2026-05-03 21:24 51.08281 4.57199 3440 ft 165 kts 197°
2026-05-03 21:24 51.07167 4.56729 3255 ft 166 kts 196°
2026-05-03 21:24 51.06056 4.56266 3052 ft 163 kts 196°
2026-05-03 21:24 51.04964 4.55810 2828 ft 161 kts 196°
2026-05-03 21:25 51.03891 4.55367 2638 ft 157 kts 197°
2026-05-03 21:25 51.02834 4.54931 2445 ft 157 kts 197°
2026-05-03 21:25 51.01778 4.54496 2251 ft 157 kts 197°
2026-05-03 21:25 51.00745 4.54072 2050 ft 148 kts 197°
2026-05-03 21:26 50.99777 4.53675 1846 ft 141 kts 197°
2026-05-03 21:26 50.98836 4.53289 1679 ft 141 kts 197°
2026-05-03 21:26 50.97931 4.52917 1508 ft 143 kts 197°
2026-05-03 21:26 50.96965 4.52520 1313 ft 144 kts 196°
2026-05-03 21:27 50.95999 4.52125 1116 ft 143 kts 196°
2026-05-03 21:27 50.95034 4.51730 918 ft 144 kts 195°
2026-05-03 21:27 50.94059 4.51310 746 ft 145 kts 196°
2026-05-03 21:27 50.93069 4.50920 568 ft 148 kts 193°
2026-05-03 21:28 50.92070 4.50521 398 ft 147 kts 194°
2026-05-03 21:28 50.91137 4.50138 156 ft 142 kts 194°
2026-05-03 21:28 50.90240 4.49772 128 ft 119 kts 194°
2026-05-03 21:28 50.89553 4.49493 159 ft 85 kts 194°
2026-05-03 21:29 50.89103 4.49312 176 ft 50 kts 194°
2026-05-03 21:29 50.88879 4.49220 182 ft 17 kts 196°
2026-05-03 21:29 50.88796 4.49131 197 ft 15 kts 239°
2026-05-03 21:29 50.88792 4.48983 191 ft 14 kts 283°
2026-05-03 21:30 50.88843 4.48898 190 ft 11 kts
2026-05-03 21:30 50.88931 4.48930 184 ft 15 kts 14°
2026-05-03 21:30 50.89042 4.48976 178 ft 13 kts 14°
2026-05-03 21:30 50.89107 4.49002 176 ft 10 kts 14°
2026-05-03 21:31 50.89192 4.49036 175 ft 18 kts 14°
2026-05-03 21:31 50.89362 4.49106 165 ft 29 kts 14°
2026-05-03 21:31 50.89538 4.49178 157 ft 21 kts 14°
2026-05-03 21:31 50.89664 4.49271 150 ft 21 kts 14°
2026-05-03 21:32 50.89825 4.49336 140 ft 27 kts 14°
2026-05-03 21:32 50.90010 4.49412 127 ft 24 kts 14°
2026-05-03 21:32 50.90169 4.49475 126 ft 23 kts 14°
2026-05-03 21:32 50.90321 4.49537 123 ft 22 kts 14°
2026-05-03 21:33 50.90470 4.49597 123 ft 22 kts 14°
2026-05-03 21:33 50.90613 4.49656 123 ft 21 kts 14°
2026-05-03 21:33 50.90753 4.49714 121 ft 20 kts 14°
2026-05-03 21:33 50.90872 4.49760 120 ft 7 kts 355°
2026-05-03 21:34 50.90898 4.49700 119 ft 7 kts 270°
2026-05-03 21:34 50.90878 4.49607 122 ft 11 kts 245°
2026-05-03 21:34 50.90841 4.49482 123 ft 13 kts 245°
2026-05-03 21:34 50.90804 4.49353 121 ft 13 kts 246°
2026-05-03 21:35 50.90767 4.49221 118 ft 14 kts 246°
2026-05-03 21:35 50.90723 4.49069 117 ft 16 kts 245°
2026-05-03 21:35 50.90672 4.48896 117 ft 18 kts 244°
2026-05-03 21:35 50.90615 4.48707 118 ft 20 kts 246°
2026-05-03 21:36 50.90561 4.48510 119 ft 19 kts 246°
2026-05-03 21:36 50.90507 4.48319 116 ft 19 kts 245°
2026-05-03 21:36 50.90453 4.48136 120 ft 18 kts 245°
2026-05-03 21:36 50.90401 4.47959 118 ft 17 kts 244°
2026-05-03 21:37 50.90345 4.47779 118 ft 19 kts 244°
2026-05-03 21:37 50.90291 4.47582 117 ft 20 kts 248°
2026-05-03 21:37 50.90233 4.47375 120 ft 21 kts 245°
2026-05-03 21:37 50.90181 4.47197 122 ft 13 kts 245°
2026-05-03 21:38 50.90185 4.47070 123 ft 12 kts 295°
2026-05-03 21:38 50.90224 4.46945 124 ft 13 kts 296°
2026-05-03 21:38 50.90267 4.46805 124 ft 15 kts 296°
2026-05-03 21:38 50.90304 4.46690 125 ft 12 kts 297°
2026-05-03 21:39 50.90341 4.46572 126 ft 12 kts 296°
2026-05-03 21:39 50.90361 4.46435 131 ft 13 kts 268°
2026-05-03 21:39 50.90333 4.46301 132 ft 13 kts 246°
2026-05-03 21:39 50.90297 4.46174 134 ft 12 kts 245°
2026-05-03 21:40 50.90260 4.46051 135 ft 12 kts 244°
2026-05-03 21:40 50.90223 4.45922 137 ft 13 kts 246°
2026-05-03 21:40 50.90200 4.45840 138 ft 7 kts 246°
2026-05-03 21:40 50.90181 4.45774 138 ft 5 kts 245°
2026-05-03 21:41 50.90180 4.45730 138 ft 4 kts 305°
2026-05-03 21:41 50.90205 4.45707 138 ft 4 kts 334°
2026-05-03 21:41 50.90231 4.45687 138 ft 4 kts 335°
2026-05-03 21:41 50.90248 4.45675 138 ft 1 kts 335°
2026-05-03 21:42 50.90253 4.45672 138 ft 1 kts 335°